Location: Lombray
(49.5154°N, 3.1089°E)
Time: 20:37:21
(UTC+00:00)

Cosmos 2322 Rocket - Pass Details

Date: 15 May 2026
Orbit: 831 x 850 km, 71.0° (Epoch: 6 June)

Event Time Altitude Azimuth Distance (km) Brightness Sun altitude
Rises 20:32:59 0° 333° (NNW) 3,406 7.0 -9.5°
Reaches altitude 10° 20:35:30 10° 338° (NNW) 2,471 5.9 -9.8°
Maximum altitude 20:41:04 55° 56° (NE) 1,018 2.6 -10.4°
Enters shadow 20:45:50 14° 131° (SE) 2,183 3.7 -10.9°
